Dewpoint
26 25 27 25 25 27 26 25 23 27 28 30 31 30 29 29 29 29 30 30 30 30 30 31 31 33 34 34 35 35 35 36 37 39 39 40 40 40 41 42 44 45 45 46
27 24 24 22 23 27 28 28 27 27 28 31 32 30 28 29 29 30 30 30 30 30 30 31 31 32 33 33 34 35 35 35 36 37 37 38 39 40 41 41 42 43 44 44
22 27 24 22 21 24 28 29 29 26 29 32 31 31 29 29 30 30 30 30 29 29 30 30 30 33 31 31 33 34 34 35 35 35 35 36 38 38 39 40 41 41 42 43
20 24 19 23 25 26 25 29 30 30 32 32 32 30 29 30 30 30 30 29 29 29 30 29 29 31 29 30 32 29 32 31 31 32 34 35 36 37 37 38 39 40 41 43
20 20 21 22 25 26 25 26 29 29 32 31 30 29 29 30 30 30 29 29 30 30 29 29 28 29 26 26 28 27 30 29 29 31 31 32 33 34 36 37 38 39 40 41
24 21 13 22 26 28 27 20 29 30 31 30 30 29 29 30 30 29 29 28 28 27 26 25 24 26 25 24 25 24 27 26 27 28 28 30 30 31 33 35 36 37 39 41
22 21 21 26 27 28 17 18 29 29 30 31 30 30 31 31 30 30 27 25 25 23 23 23 24 25 24 24 23 24 26 25 25 26 25 26 29 28 31 30 34 34 34 37
20 18 9 26 27 21 24 27 29 29 29 29 29 29 29 28 27 24 22 22 22 21 21 23 24 24 24 23 23 23 23 23 23 24 24 25 25 27 26 29 30 30 30 32
20 18 24 28 28 29 28 28 28 29 30 30 29 28 28 26 23 20 19 18 19 19 20 20 20 20 19 19 19 20 21 21 22 22 23 24 24 25 25 28 28 29 29 29
21 21 25 26 29 29 29 29 30 30 30 29 28 26 23 22 20 19 18 18 19 19 18 17 18 20 19 17 17 19 19 20 21 22 23 24 24 26 26 27 27 28 28 26
24 25 26 27 28 29 29 30 30 29 28 26 25 24 21 20 19 18 17 18 18 18 18 17 17 16 16 16 16 17 18 19 21 22 23 24 26 26 27 28 28 28 26 26
21 24 24 27 29 30 29 29 29 27 25 25 23 22 21 18 17 17 17 19 18 17 17 16 16 16 16 17 17 17 17 19 22 24 25 26 26 26 27 28 28 29 28 25
24 28 28 28 30 30 29 29 26 25 24 23 21 18 16 15 16 19 17 17 16 16 16 15 16 16 17 18 18 18 17 19 22 24 25 26 25 24 23 24 25 25 27 25
28 28 27 28 27 29 28 26 27 24 20 17 16 16 15 15 16 16 16 16 16 16 16 17 17 17 17 18 18 18 18 20 23 25 25 25 24 24 24 24 24 25 25 25
28 27 28 29 29 28 26 24 18 14 14 13 15 16 17 17 17 17 17 18 18 18 18 19 20 20 21 21 21 21 21 21 23 24 25 24 25 24 24 24 26 26 26 24
26 26 27 27 28 25 20 17 14 13 16 17 18 19 20 20 19 20 20 20 20 21 21 21 21 21 22 26 26 24 24 24 24 24 26 29 27 24 24 25 24 26 25 25
25 24 22 21 21 19 16 15 17 19 18 17 19 20 20 20 19 20 20 20 20 20 20 21 22 24 26 25 24 24 24 25 26 27 29 28 27 26 26 25 25 25 26 23
25 24 22 20 19 16 17 19 18 17 17 19 19 18 17 17 17 17 17 18 18 19 20 20 22 24 24 24 24 25 27 27 26 26 28 28 27 27 26 26 25 26 25 24
22 21 19 19 18 18 17 17 17 17 17 17 16 16 16 16 16 16 17 17 17 17 18 20 22 22 22 23 23 24 27 26 25 28 28 26 26 26 26 25 24 24 24 24
18 19 18 18 17 15 15 17 17 17 16 15 16 16 15 16 16 16 16 16 17 17 19 21 21 22 22 22 23 24 25 25 24 24 25 26 26 26 26 27 26 24 25 26
18 18 17 15 16 18 18 17 16 14 15 16 16 15 15 16 15 16 16 16 17 18 20 20 22 21 22 24 27 27 25 25 24 24 24 25 26 25 24 24 23 23 23 23
16 15 15 16 16 17 16 16 15 15 15 16 15 15 15 14 15 16 17 17 18 20 20 22 21 22 24 26 26 25 25 25 25 25 25 24 24 23 22 23 23 23 24 24
15 15 17 16 15 14 17 16 15 15 15 15 14 14 14 14 15 16 15 17 19 19 21 21 21 22 23 26 24 24 24 24 24 24 24 23 23 23 23 22 22 23 23 24
17 17 16 17 15 16 13 14 15 15 16 14 14 15 14 13 16 16 16 18 18 19 19 20 21 21 22 23 24 24 23 22 22 22 22 21 21 22 21 21 21 22 22 23
17 17 17 15 15 14 13 14 14 14 13 13 14 13 14 16 16 15 16 16 17 18 18 17 20 21 22 23 24 23 22 22 22 21 20 20 19 20 19 20 20 20 22 22
15 15 17 16 14 13 13 13 14 14 14 13 13 13 14 17 15 15 15 16 16 18 16 16 17 20 21 22 24 22 22 21 21 20 19 18 18 18 18 18 18 19 20 22
16 17 15 13 13 12 13 13 15 12 13 13 13 14 16 14 14 14 14 14 17 17 15 14 16 18 20 23 22 21 21 21 20 20 19 18 17 17 16 17 17 19 21 21
Wind_Speed
5 5 3 5 10 14 17 7 5 11 7 11 12 10 10 13 11 10 9 8 8 8 8 8 8 9 11 12 13 14 15 14 14 14 15 14 15 15 15 14 13 12 12 11
3 4 3 0 9 6 10 12 12 11 6 10 12 13 12 13 12 11 9 7 5 6 7 6 8 9 10 12 14 12 13 13 13 14 14 14 14 15 14 14 15 14 13 12
3 7 5 1 3 4 4 6 0 3 4 12 13 13 13 12 12 10 7 5 5 4 5 7 8 6 9 11 10 10 10 10 13 14 14 16 16 15 16 17 16 16 15 12
4 6 1 2 0 1 2 4 6 7 6 4 5 9 11 5 9 8 6 4 4 4 5 6 7 5 7 10 10 12 10 11 14 15 15 14 15 14 13 15 16 16 16 15
2 3 3 3 2 1 2 2 2 7 6 6 7 4 3 5 6 4 2 1 2 2 4 7 8 4 5 9 9 10 9 11 13 13 14 14 15 15 13 11 13 13 15 16
0 2 3 2 3 2 2 4 1 4 8 8 7 5 6 4 3 2 1 2 5 7 7 7 5 1 3 6 7 11 11 12 12 13 14 15 16 18 15 17 15 13 15 15
5 5 5 3 6 3 1 2 4 3 4 5 5 4 6 6 3 2 4 6 7 8 10 13 13 14 18 15 13 10 10 11 10 12 15 16 14 14 14 17 16 14 16 16
3 4 4 8 4 5 4 4 6 4 4 5 7 8 8 6 6 6 6 7 7 6 7 8 7 9 14 17 19 20 19 16 14 13 12 12 13 14 15 13 15 15 14 15
7 5 4 10 5 5 7 7 6 7 6 8 9 8 9 7 6 5 5 4 3 3 5 9 8 9 11 14 13 14 15 17 18 17 15 13 13 11 10 12 12 14 13 14
3 2 9 10 6 8 6 5 6 6 7 6 6 3 2 2 3 4 5 5 4 5 9 13 12 11 12 14 15 15 16 18 18 17 17 14 12 10 10 11 13 10 12 14
8 12 8 9 11 12 9 9 8 6 5 5 3 2 1 3 5 6 7 6 6 8 11 14 12 13 14 15 16 19 18 19 19 16 16 16 13 10 10 12 9 11 13 13
15 10 7 2 7 12 11 9 8 7 4 2 2 1 3 6 6 7 10 8 11 13 13 14 12 14 16 16 16 18 18 16 17 16 14 12 10 13 9 13 14 16 17 16
17 6 3 8 7 6 8 8 7 5 3 1 2 2 4 7 8 11 13 13 14 14 13 13 16 17 17 16 16 17 18 19 17 16 12 12 11 10 15 13 15 14 13 15
12 13 4 7 6 7 10 8 7 4 2 2 4 5 6 9 12 14 16 16 14 14 16 17 17 16 15 19 18 17 18 21 17 14 12 11 10 12 11 15 17 18 10 12
12 4 5 11 11 8 8 6 4 2 4 6 7 9 11 13 15 15 15 15 15 15 15 15 17 18 19 19 19 19 18 17 16 15 13 14 11 11 13 14 15 17 17 12
11 11 11 10 10 8 6 5 3 2 4 6 9 10 11 11 12 14 14 15 16 16 16 16 17 18 16 15 16 16 17 21 20 16 14 9 9 9 12 13 15 15 16 13
12 10 9 9 10 9 6 5 5 3 3 6 7 8 10 12 12 13 14 15 15 15 16 16 16 15 16 15 17 17 16 17 20 17 14 8 7 11 14 14 15 15 15 15
4 5 10 11 14 11 8 5 4 4 4 5 6 8 11 12 11 13 14 15 15 14 14 14 14 16 17 17 17 17 17 16 16 16 13 11 12 13 15 14 14 14 16 16
11 15 12 14 12 10 7 6 4 3 5 5 7 9 8 9 11 13 14 14 13 14 15 16 20 18 18 18 21 16 16 15 17 13 9 13 14 14 15 14 14 14 15 16
13 13 13 12 9 7 7 4 3 3 3 4 5 7 9 9 11 13 13 13 13 13 16 15 18 17 18 19 21 17 16 16 16 16 15 14 14 16 15 13 14 14 14 13
12 11 11 10 8 6 5 3 3 2 3 4 5 6 7 10 11 12 13 13 13 15 18 19 16 16 16 20 21 14 16 17 16 16 15 15 10 9 10 11 13 13 14 14
12 12 10 8 7 5 3 3 3 2 2 3 4 5 8 10 11 11 10 12 14 19 16 14 15 18 21 26 14 15 16 14 14 13 10 10 10 11 12 12 13 13 14 14
12 11 10 8 6 5 3 3 1 1 1 3 5 6 8 10 12 13 16 12 14 17 16 14 19 23 24 12 14 15 14 14 14 13 12 13 11 11 10 11 12 13 13 13
10 10 9 8 7 6 5 2 1 2 4 4 6 7 8 12 12 8 12 16 17 19 17 18 20 22 20 15 12 13 12 13 13 13 11 14 12 11 11 11 12 12 13 14
11 9 8 9 7 6 5 4 1 1 1 3 6 7 10 11 8 15 14 14 15 16 16 20 21 20 15 15 11 11 12 12 12 12 12 11 12 11 11 11 11 13 12 13
12 10 9 8 6 7 5 4 3 1 2 5 7 7 10 10 11 13 13 13 13 16 14 15 15 16 15 16 9 12 13 12 12 11 12 12 11 11 11 12 12 12 12 13
9 9 8 6 6 7 6 5 4 3 2 4 8 9 8 10 11 13 13 12 12 12 13 14 14 16 17 12 11 12 12 12 12 12 11 11 11 11 12 12 12 12 11 11
Wind_Direction
283 281 284 15 12 17 32 5 74 164 144 176 168 164 150 134 121 105 93 77 69 68 54 45 33 21 16 11 11 6 11 10 8 8 6 2 1 356 351 350 337 320 318 313
287 321 340 57 19 39 33 38 81 98 77 166 150 138 143 146 139 130 123 110 81 47 37 33 13 10 9 7 360 2 4 359 3 3 356 354 355 349 348 347 344 337 319 306
285 337 326 330 12 37 86 47 65 109 149 141 145 148 154 152 149 142 120 94 77 56 20 0 359 9 2 354 357 0 353 1 3 354 349 346 343 347 345 343 342 336 329 313
299 351 312 271 315 145 97 96 95 104 88 78 127 88 82 101 133 112 101 78 34 353 349 340 327 347 354 352 358 351 354 351 347 344 341 338 339 336 336 333 329 327 328 322
319 294 291 258 241 188 126 158 84 156 139 130 124 77 30 64 91 111 91 2 286 315 303 319 343 15 2 352 344 328 336 337 329 325 326 331 327 322 319 316 314 314 314 314
288 280 242 209 182 121 56 260 237 144 167 162 154 203 243 201 134 115 334 329 321 322 328 338 339 331 326 304 314 319 314 310 313 311 311 304 309 314 316 317 311 314 303 299
233 249 273 204 151 127 182 204 174 136 145 158 198 219 164 171 199 246 289 300 304 314 316 320 326 332 327 323 306 286 281 282 297 306 310 308 304 313 316 319 312 316 313 308
187 224 271 168 137 193 168 159 170 159 154 137 150 158 164 181 207 227 252 259 267 266 280 292 293 286 280 284 292 299 303 301 299 299 300 299 300 301 307 311 321 316 313 312
209 234 200 189 206 170 163 167 181 169 169 156 166 185 185 207 223 249 266 272 258 230 273 289 289 285 286 290 297 291 282 283 292 298 298 295 294 290 304 299 306 310 312 309
307 269 221 201 177 175 177 165 144 144 160 164 181 183 214 260 284 299 302 299 264 287 296 294 297 290 285 294 295 295 293 288 283 282 289 292 296 293 299 295 292 287 304 307
246 270 268 240 206 184 158 142 145 146 156 164 172 226 261 302 309 307 308 305 289 291 291 290 295 294 296 297 297 292 286 281 280 278 280 286 287 288 295 295 271 287 294 295
255 236 231 216 171 161 163 175 173 167 175 172 177 273 299 303 295 302 307 307 303 299 297 298 302 303 303 302 298 294 291 283 272 270 270 281 287 304 297 291 292 291 288 288
242 181 184 148 128 139 159 158 153 148 126 68 1 346 322 311 312 317 317 310 308 305 302 306 306 300 294 293 291 288 286 283 273 266 261 265 281 291 303 303 300 288 289 294
171 136 158 190 189 146 137 129 119 101 56 4 329 327 330 324 320 321 317 312 310 312 315 314 309 310 317 317 310 305 300 300 288 261 261 259 264 279 280 293 300 300 282 286
174 141 161 142 133 130 126 128 111 52 8 12 24 7 1 350 341 334 335 339 337 334 331 332 324 323 324 323 320 314 309 302 293 280 269 266 265 275 284 287 287 289 296 296
151 131 134 148 153 148 143 149 129 50 27 7 360 357 349 347 341 337 339 339 344 334 325 322 319 319 323 324 319 319 315 308 304 294 282 256 249 266 276 276 281 279 290 289
151 175 169 171 170 165 162 126 114 91 20 4 353 349 356 351 344 353 349 341 334 324 321 321 323 328 323 325 320 312 307 305 303 301 290 253 255 265 259 267 270 275 279 282
150 165 167 175 165 151 134 112 85 63 37 10 10 11 8 3 351 341 335 332 329 323 319 319 322 322 328 321 316 315 311 296 294 287 278 264 276 262 264 261 269 274 280 282
136 133 125 125 132 130 123 113 101 75 57 36 20 11 359 347 338 332 331 331 329 327 326 328 328 332 321 317 324 316 313 319 322 306 286 283 285 281 274 271 270 275 276 277
120 119 120 116 114 125 135 123 105 85 50 36 27 7 350 343 338 334 332 323 310 310 316 326 335 325 318 314 315 311 307 307 304 302 296 282 279 276 269 267 288 293 292 284
133 132 129 127 125 119 115 104 92 62 37 44 26 351 339 336 336 333 332 323 318 318 332 330 323 320 313 311 313 308 306 300 294 291 289 288 302 304 291 285 286 287 289 286
149 147 140 142 149 146 119 104 84 29 28 34 359 343 339 332 327 318 303 295 311 326 329 323 317 314 318 324 335 323 313 318 322 317 312 306 305 306 297 291 289 292 290 288
163 157 151 160 166 163 131 125 69 350 345 339 329 327 319 312 317 321 326 323 326 323 332 322 318 326 325 336 325 319 317 319 317 314 311 304 296 299 302 306 299 296 295 295
168 168 163 160 159 151 155 190 254 288 269 297 319 323 320 326 317 296 295 313 322 329 333 323 326 330 333 323 319 321 327 327 326 321 336 331 315 307 311 308 307 306 304 304
178 170 168 180 176 176 169 176 254 129 251 329 338 332 330 321 304 314 316 317 325 332 331 325 330 330 322 317 315 326 325 327 329 333 323 327 321 320 317 313 313 309 310 309
180 192 204 201 186 176 172 183 208 255 315 333 328 326 320 311 317 321 318 327 330 330 328 322 324 327 321 322 332 335 330 324 327 323 337 325 320 320 318 316 312 309 308 311
189 172 190 185 202 191 188 201 226 248 303 320 309 311 313 324 328 327 328 329 324 325 326 324 326 327 331 348 348 338 334 327 334 335 331 324 323 320 318 314 312 310 318 323